Showing default

FLOCK 4BE 27, 60513

Orbit data source: Space-Track

FLOCK 4BE 27, 60513 is a payload satellite owned by Planet (US) in SSO that was launched on Fri, 16 Aug 2024 UTC via an FALCON 9 launch vehicle from the Air Force Western Test Range (AFWTR). Payload-class satellites include a variety of spacecraft equipped with specific instruments for various scientific and technological missions. These include communications satellites like Starlink; space stations such as the ISS; scientific satellites like the Hubble; Earth observation satellites from companies like Planet Labs, Umbra, and HawkEye 360; GPS; miniature CubeSats for education and research; and military/defense satellites.

Loading next visibility...
Identifier
60513, 2024-149AX
Orbit
SSO
Country
Flag of USUS
Related business
Manufacturer
Planet
Mission
Partially operational Commercial Imaging
Bus & Motor
CUBESAT 3U, Unknown motor
Mass
5.7 kg wet, 5.7 kg dry
Launch date (UTC)
2024-08-16 (2 years ago)
Launch vehicle
FALCON 9
Launch site
Air Force Western Test Range (AFWTR)
Object type
Payload
Rocket body
Debris
Shape & HBR
Box + 2 Pan, 1.0 m
Radar Cross Section
0.072 m², Medium (>0.1 m² and < 1m²)

Expand to show TLE details & history
Last TLE update: 1 day ago

TLE from 1 day ago
0 FLOCK 4BE 27
1 60513U 24149AX  26250.78276395  .00008702  00000-0  25272-3 0  9995
2 60513  97.3784 332.7277 0004274  31.3467 328.8031 15.35722909114810
Epoch: 2026-09-07T18:47Z
TLE epoch observation values (Epoch: 2026-09-07T18:47:10.805Z)
Latitude
0.00001°
Longitude
64.07409°
Altitude
459.387 km
Speed
7.638 km/s
True Right ascension
22h 10m 54s
True Declination
0° 00' 00"
Sunlit
Object was in full shadow at epoch
Visualization orbit readout
Latitude
Unknown
Longitude
Unknown
Altitude
Unknown
Speed
Unknown
Apparent Right ascension
Unknown
Apparent Declination
Unknown
Sunlit
N/A
Visualization observer readout
Local Sidereal Time
11:18:15
Azimuth
Unknown
Elevation
Unknown
Doppler factor
Unknown
Orbital elements
Apogee altitude
458.639 km
Perigee altitude
452.797 km
Semi-major axis
6,833.855 km
Eccentricity
0.00043
Inclination
97.3784°
RAAN
332.7277°
Arg. of periapsis
31.3467°
True anomaly
328.77772°
Mean anomaly
328.8031°
Eccentric anomaly
328.79041°
Mean motion
3.84189 °/min
Orbital period
93.7 mins
BSTAR
0.00025272
Loading maneuver chart data...
Computing Atmospheric mass density...
Loading historical data...
Loading historical data...
Loading historical data...
Loading historical data...
Loading historical data...
Loading historical data...
Loading historical data...

Documentation

Showing up to 5 results
|